This is the latest recevied weather packets stored in our database for station/object IZ3MEZ-13. If no packets are shown the sender has not sent any weather packets the latest 10 day(s).
| Time | Temp. | Humidity | Pressure | Rain* | Wind** | Luminosity | Snow |
|---|---|---|---|---|---|---|---|
| 1777617619 | 13.33° C | 45% | 1029.7 hPa | 0 mm | - | - | - |
| 1777617024 | 12.78° C | 46% | 1029.7 hPa | 0 mm | - | - | - |
| 1777616425 | 12.22° C | 48% | 1029.5 hPa | 0 mm | - | - | - |
| 1777615819 | 12.22° C | 50% | 1029.6 hPa | 0 mm | - | - | - |
| 1777615220 | 11.67° C | 50% | 1029.4 hPa | 0 mm | - | - | - |
| 1777614631 | 11.67° C | 52% | 1029.3 hPa | 0 mm | - | - | - |
| 1777614018 | 11.11° C | 52% | 1029.2 hPa | 0 mm | - | - | - |
| 1777613418 | 11.11° C | 53% | 1029.1 hPa | 0 mm | - | - | - |
| 1777612817 | 10.56° C | 54% | 1029.2 hPa | 0 mm | - | - | - |
| 1777612220 | 10.56° C | 55% | 1029 hPa | 0 mm | - | - | - |
| 1777611629 | 10.56° C | 56% | 1029.1 hPa | 0 mm | - | - | - |
| 1777611017 | 10° C | 57% | 1029 hPa | 0 mm | - | - | - |
| 1777610422 | 10° C | 58% | 1028.9 hPa | 0 mm | - | - | - |
| 1777609823 | 10° C | 59% | 1028.6 hPa | 0 mm | - | - | - |
| 1777609218 | 10° C | 59% | 1028.8 hPa | 0 mm | - | - | - |
| 1777608616 | 10° C | 59% | 1028.7 hPa | 0 mm | - | - | - |
| 1777608029 | 10° C | 59% | 1028.5 hPa | 0 mm | - | - | - |
| 1777607420 | 9.44° C | 59% | 1028.6 hPa | 0 mm | - | - | - |
| 1777606821 | 9.44° C | 60% | 1028.6 hPa | 0 mm | - | - | - |
| 1777606217 | 9.44° C | 60% | 1028.5 hPa | 0 mm | - | - | - |
| 1777605624 | 10° C | 59% | 1028.3 hPa | 0 mm | - | - | - |
| 1777605029 | 10° C | 60% | 1028.4 hPa | 0 mm | - | - | - |
| 1777604418 | 10° C | 60% | 1028.6 hPa | 0 mm | - | - | - |
| 1777603820 | 9.44° C | 61% | 1028.5 hPa | 0 mm | - | - | - |
| 1777603223 | 9.44° C | 62% | 1028.5 hPa | 0 mm | - | - | - |
* Rain latest hour (hover to see other rain measurements)
** Current wind speed in m/s (hover to see current wind gust speed)